Theta_e
352 357 360 362 361 362 363 362 362 362 363 363 363 363 362 361 361 362 362 361 361 360 358 355 352 353 354 354 355 355 356 355 353 353 354 353 354 353 351 350 350 347 349
354 357 360 361 361 361 362 362 361 361 361 362 362 362 361 361 362 362 361 360 359 357 355 351 350 351 353 353 353 354 354 354 356 352 352 352 355 354 351 349 349 348 349
354 358 358 361 361 362 362 361 360 360 360 360 361 361 361 361 361 360 360 360 357 356 353 351 351 352 352 353 352 353 353 354 356 354 351 348 350 351 350 349 350 349 348
355 357 357 361 361 361 361 360 360 360 359 359 360 360 360 360 360 359 359 359 357 355 352 351 352 352 353 353 352 352 352 352 352 353 351 346 346 350 350 350 349 349 348
354 356 357 361 361 361 360 360 359 359 359 359 359 359 359 359 359 359 359 358 355 353 351 351 352 353 353 353 354 353 353 351 349 344 339 341 346 349 351 351 351 349 348
352 355 360 361 360 360 360 359 359 359 359 359 359 359 359 359 358 358 357 356 355 351 350 350 351 352 353 354 353 352 350 348 343 331 330 331 342 349 353 352 353 351 349
351 353 358 360 360 360 360 359 358 358 358 359 359 359 359 359 358 357 357 355 353 353 352 351 352 353 353 353 352 349 347 343 334 328 330 334 345 349 355 354 353 352 349
351 354 356 360 360 359 360 359 358 357 357 358 358 359 358 358 357 356 356 355 354 353 352 351 351 351 350 348 347 345 344 341 332 330 329 331 338 348 354 356 355 354 350
353 353 354 356 358 360 359 358 357 357 357 357 357 357 358 358 357 356 355 355 354 353 352 351 350 348 346 345 344 343 343 341 334 332 329 330 334 347 353 356 357 353 352
351 352 351 353 355 355 355 359 358 357 357 357 357 357 357 357 356 356 354 353 354 353 352 350 350 348 346 345 344 344 344 342 336 334 333 332 337 343 353 357 357 355 353
349 348 350 351 351 352 353 356 358 358 358 357 356 357 354 352 352 353 352 351 353 353 352 352 350 348 347 346 346 347 345 339 337 334 332 335 339 342 354 358 358 356 355
344 346 349 350 351 351 353 352 353 353 354 354 353 352 350 348 348 350 351 353 352 354 353 352 351 350 349 341 338 340 336 337 337 336 334 339 343 343 349 357 358 358 356
343 346 349 351 351 351 351 352 353 353 353 352 351 350 349 348 348 349 346 347 348 349 348 346 347 345 343 339 337 336 334 333 334 335 337 345 346 347 349 353 355 358 356
341 342 347 349 350 351 350 352 351 350 351 350 352 350 348 345 344 344 344 344 343 343 343 342 340 340 338 339 338 336 335 334 334 336 339 345 348 349 351 355 357 357 355
340 341 343 347 347 349 347 350 348 349 349 350 350 351 349 345 342 343 343 342 341 341 340 339 339 337 336 335 335 334 334 334 336 339 341 345 349 351 352 355 358 357 355
341 342 342 345 347 347 346 347 348 348 349 348 349 349 349 345 343 342 342 341 340 340 340 339 337 335 333 333 332 332 332 334 338 343 343 345 347 348 353 354 357 359 358
332 342 341 343 345 344 345 345 345 348 349 349 348 349 349 348 344 344 341 340 341 340 339 338 336 335 332 332 332 333 335 337 340 343 347 347 346 346 352 354 356 358 359
331 338 340 344 342 342 342 344 345 345 346 347 348 348 349 349 347 344 342 341 340 338 337 336 335 334 333 332 333 333 335 338 341 343 345 347 347 347 348 353 353 355 357
329 335 336 340 340 340 338 341 342 342 342 343 342 342 345 347 348 345 343 343 340 337 336 336 334 334 334 334 333 335 335 337 339 340 342 344 345 346 347 347 349 351 353
318 333 336 337 337 339 339 341 342 342 340 339 339 339 340 342 345 346 345 342 339 338 337 336 336 335 334 336 335 335 335 337 337 337 338 340 342 344 346 347 348 348 349
313 331 335 334 333 334 333 333 335 342 344 343 339 340 339 339 341 342 342 343 339 336 338 338 338 336 336 334 333 335 334 335 335 336 338 339 340 342 344 344 345 345 346
319 328 333 335 331 336 336 334 334 336 340 342 345 345 345 342 341 341 340 341 341 339 338 338 335 333 334 334 330 327 325 330 334 337 338 339 339 339 339 340 343 345 345
315 324 331 334 331 330 326 331 327 326 327 327 329 332 333 337 342 342 341 340 341 341 340 338 337 335 332 333 333 331 324 321 325 332 335 332 333 334 335 336 338 340 344
310 319 324 323 323 322 322 323 323 318 318 322 323 327 329 333 334 336 338 340 339 340 339 338 339 335 332 328 330 335 335 333 324 322 329 330 331 330 330 332 335 336 340
310 312 317 319 321 322 323 320 319 318 319 322 323 323 325 327 329 332 333 334 334 335 334 334 335 335 332 329 327 331 332 332 330 326 322 325 329 330 331 332 334 333 338
311 314 317 319 319 321 321 320 320 320 320 320 321 320 321 323 325 328 330 331 331 330 329 330 332 332 333 334 335 333 332 329 328 326 324 325 324 329 329 330 331 330 334
Wind_Speed
4 8 17 15 16 16 16 15 15 17 16 17 18 18 17 17 16 15 14 13 12 12 11 10 9 9 9 10 11 10 10 10 10 9 7 5 5 8 7 7 8 6 8
12 8 17 15 15 16 17 16 15 15 16 17 18 17 16 16 15 14 13 13 12 12 11 10 9 9 9 9 10 9 9 9 8 8 7 4 8 7 6 6 7 6 6
14 11 13 13 15 16 17 17 16 14 14 15 16 16 15 15 14 13 12 12 12 12 11 11 11 10 10 10 9 9 8 8 6 7 7 3 3 5 6 6 7 7 6
13 10 11 15 15 16 18 18 17 16 15 14 15 15 15 14 14 13 11 11 11 11 10 10 10 10 10 9 9 9 8 7 6 6 3 4 4 6 5 6 7 7 6
11 9 11 16 16 16 18 18 17 16 17 17 17 16 16 15 13 12 11 10 10 10 10 9 9 9 9 8 7 6 6 5 4 2 2 3 4 7 7 8 7 8 8
10 9 13 16 16 16 18 18 17 16 16 16 15 15 14 14 12 11 10 10 9 10 9 9 8 8 8 7 6 7 6 5 3 2 2 5 8 8 11 11 10 9 9
9 6 10 15 16 16 17 17 16 15 14 13 13 13 12 11 11 10 10 10 9 9 9 10 9 8 7 7 6 6 4 3 1 3 3 2 6 10 12 11 10 10 10
12 9 9 14 14 15 16 16 16 15 14 13 12 11 10 10 9 8 8 7 7 6 6 6 5 5 6 6 5 5 5 4 1 2 4 4 6 11 12 11 10 11 11
8 9 8 9 13 16 14 14 14 14 13 13 12 11 11 10 9 7 7 6 6 6 5 5 5 5 5 6 6 6 6 6 2 2 4 3 7 11 14 12 12 12 12
4 6 6 6 7 8 8 14 14 14 13 13 12 12 10 10 9 8 8 7 6 5 4 5 5 6 6 6 7 6 7 8 3 4 4 4 9 9 14 12 12 13 12
6 5 5 6 6 7 7 9 12 15 14 13 11 11 8 3 4 6 6 7 6 6 7 7 7 8 7 7 6 7 9 2 4 4 4 9 9 10 11 12 12 12 13
10 8 7 6 6 6 6 5 5 5 4 5 5 6 4 4 4 4 6 8 9 8 8 7 7 8 7 2 3 6 2 4 4 5 4 11 11 10 12 12 13 13 13
7 7 9 8 6 7 5 4 4 3 3 3 6 6 5 4 4 3 2 3 3 5 2 3 3 2 4 3 3 4 3 4 4 5 7 11 11 12 12 13 15 14 13
7 7 6 7 9 9 4 6 5 5 7 6 6 5 4 3 3 3 3 3 3 3 4 4 2 3 4 4 4 5 6 5 4 4 6 10 10 12 13 13 13 12 11
9 10 10 10 9 8 5 7 5 5 7 6 6 8 4 4 3 2 3 3 3 2 3 4 4 3 3 5 5 5 8 6 5 4 3 9 10 11 14 13 13 12 12
10 12 13 15 12 9 8 7 6 5 7 4 5 8 10 5 4 5 4 5 4 4 3 4 4 3 5 4 5 5 8 5 6 5 4 5 9 10 9 11 12 11 13
9 8 13 14 12 13 12 9 7 6 5 6 7 8 8 7 6 6 5 5 5 5 5 4 3 3 5 4 7 6 6 6 7 7 6 4 5 8 9 10 12 13 14
5 10 8 9 11 12 12 9 6 6 6 6 5 5 7 7 6 5 5 5 4 3 4 3 3 4 5 5 5 4 5 5 7 8 7 5 4 4 6 11 12 13 13
11 8 9 12 14 14 9 8 6 7 6 5 5 5 7 7 8 8 6 5 5 4 5 4 3 4 5 5 5 6 6 6 7 6 8 6 5 5 4 7 13 13 13
9 7 6 7 8 9 5 4 3 4 4 4 5 6 8 6 8 8 6 6 5 4 5 4 6 3 6 6 4 6 4 5 5 6 8 6 4 4 5 6 5 6 12
7 8 9 9 9 9 5 5 3 7 5 4 5 6 7 6 7 5 5 5 5 6 8 9 5 5 3 3 1 5 4 7 8 7 6 5 4 3 4 4 4 2 4
6 10 9 12 10 11 9 3 3 3 2 3 3 3 4 5 5 5 6 5 5 5 6 6 5 2 3 6 4 3 5 6 3 4 3 1 4 2 3 3 4 5 5
8 9 11 12 9 4 5 4 4 4 4 3 3 2 2 4 4 4 4 4 4 4 5 6 6 9 7 4 8 5 3 7 2 2 2 2 3 3 4 3 4 4 5
11 5 3 4 7 7 6 4 4 3 3 2 3 2 2 3 5 4 3 3 4 3 5 5 5 7 4 8 1 7 7 2 7 9 3 5 5 6 6 4 6 6 5
4 2 4 7 7 7 6 7 6 6 3 3 2 3 2 2 4 4 4 3 1 1 4 5 7 7 4 5 6 4 6 6 7 9 8 5 5 8 6 7 6 6 7
7 7 7 9 6 5 7 8 8 8 6 4 3 3 2 1 2 2 3 3 2 2 3 4 5 7 8 7 7 6 8 5 6 4 6 7 9 6 7 10 7 6 7
Wind_Direction
171 156 159 149 150 139 130 124 118 117 117 117 116 120 126 130 131 130 133 132 129 132 134 131 128 126 120 117 116 115 118 121 121 126 129 125 151 138 144 137 123 120 113
133 149 157 149 147 139 133 127 122 118 120 121 123 125 127 128 128 131 135 135 136 140 140 136 136 133 130 126 121 125 129 127 127 135 141 122 140 180 151 144 134 131 122
139 147 155 150 146 143 135 130 128 124 121 122 124 126 126 127 131 135 138 142 145 146 146 147 146 144 143 137 136 138 134 133 139 150 139 150 167 161 169 160 154 145 134
141 147 150 152 148 147 137 135 134 134 132 129 129 129 130 134 139 142 144 147 150 152 152 151 151 154 156 154 154 155 154 151 154 163 160 183 196 180 184 179 167 153 147
144 150 158 155 151 149 141 139 139 140 142 143 142 141 141 143 145 148 150 153 159 160 158 160 163 166 168 168 167 167 166 170 188 184 179 215 218 195 195 196 189 169 166
141 147 162 158 154 153 147 145 145 145 146 146 145 147 147 148 149 151 156 160 167 166 167 169 173 181 188 187 186 189 191 194 202 206 211 248 206 206 197 206 200 186 184
141 139 154 161 156 155 152 151 149 148 148 148 151 154 153 155 161 167 169 173 175 175 179 182 184 190 202 206 207 216 224 228 227 283 285 285 204 211 199 210 209 200 195
149 148 157 164 159 158 159 158 155 154 154 155 157 160 162 167 175 178 177 177 185 191 192 195 202 215 226 237 245 250 257 264 273 270 279 272 250 226 211 210 210 206 205
151 155 162 164 168 165 166 163 160 159 160 161 163 167 172 177 182 185 186 189 190 199 202 207 212 222 238 258 270 276 282 282 258 263 274 265 267 241 225 214 209 211 211
146 164 165 166 167 163 167 170 167 167 168 170 173 175 179 185 186 191 198 204 208 206 210 215 230 241 241 247 261 274 289 291 299 276 268 257 265 263 233 223 214 212 214
179 180 172 176 174 162 162 178 178 178 176 177 180 182 180 179 201 205 204 214 220 220 218 221 221 227 238 251 263 280 283 275 278 265 254 262 276 280 238 228 225 223 219
196 195 186 175 175 164 173 164 154 171 172 176 176 173 173 175 190 204 215 223 228 233 234 234 232 240 250 255 269 267 244 248 251 254 249 254 251 244 248 238 230 226 227
202 194 194 184 172 165 175 157 162 168 172 173 178 176 177 181 192 198 196 225 210 240 240 251 251 243 249 243 255 259 255 261 255 254 260 247 242 247 248 251 242 223 225
183 192 184 191 190 187 161 180 173 176 200 205 201 192 187 192 192 201 207 219 223 200 224 229 227 241 251 260 261 272 258 251 258 275 285 286 276 272 267 256 234 228 229
195 188 189 179 188 186 181 184 164 177 202 196 194 207 194 189 187 181 223 224 220 219 225 229 242 247 255 257 252 255 272 278 285 264 271 289 275 257 260 248 232 224 231
207 204 187 191 189 177 180 179 189 175 192 183 204 215 211 186 183 196 211 222 224 209 217 234 239 240 256 260 272 254 267 277 273 279 254 262 274 271 257 230 237 228 232
213 209 201 192 181 182 185 179 179 189 179 196 203 202 206 191 193 208 208 226 228 208 217 225 241 231 259 261 259 257 260 260 260 260 251 245 263 265 252 236 227 231 231
205 198 177 187 183 191 189 183 182 177 182 193 185 180 169 202 188 204 217 225 211 209 213 215 221 257 260 253 273 265 259 250 263 260 262 259 245 262 253 243 235 238 233
211 190 183 180 182 191 183 176 179 176 194 183 177 183 182 195 187 209 218 227 195 204 211 219 215 222 256 260 256 267 261 257 255 266 263 256 243 238 247 238 244 237 238
224 197 178 175 175 184 149 139 162 179 186 176 200 197 195 208 210 207 214 219 183 199 207 202 221 214 250 275 296 286 280 274 262 250 260 258 241 239 250 242 239 239 230
219 188 188 171 169 156 166 162 174 203 187 194 195 204 199 204 218 217 221 235 197 204 214 209 192 187 235 136 277 291 283 257 257 251 250 257 292 301 316 299 271 253 265
214 201 184 193 172 185 186 159 132 134 157 141 157 160 191 194 209 206 207 222 217 219 233 226 182 169 219 166 159 135 299 306 283 293 319 110 93 81 53 30 329 292 243
246 227 203 194 178 167 123 94 75 70 55 69 83 121 189 157 167 202 217 218 225 217 241 219 201 186 212 217 162 175 171 225 17 246 82 190 202 202 173 228 236 245 268
237 217 224 134 123 112 112 104 119 131 140 153 170 170 139 110 110 107 134 177 215 216 237 229 233 250 263 256 210 206 240 213 243 271 217 223 229 235 226 216 249 245 264
273 211 116 111 107 117 119 121 119 111 120 126 117 130 135 83 86 81 74 69 75 203 234 238 261 262 239 241 234 232 210 211 223 236 249 246 239 227 224 216 223 224 231
56 65 86 88 69 97 117 120 128 135 147 142 163 170 175 132 88 89 123 134 179 231 259 254 240 239 250 243 247 225 224 206 203 206 226 239 249 272 262 276 278 257 251